[[{"header":{"parameterUnit":"m.s-1","parameterCategory":1,"la1":30.2991,"la2":30.254,"lo1":-89.0895,"lo2":-89.0444,"dy":0.0017,"dx":0.0017,"nx":28,"ny":28,"refTime":"2024-04-23T21:00:00:Z","depth":0,"parameterNumber":2,"parameterNumberName":"U-component_of_WINDS"},"data":[0,0,0,0,0,0,0,0,0,0,0,0,0,0,0,0,0,0,0,0,0,0,0,0,0,0,0,0,0,0,0,0,0,0,0,0,0,0,0,0,0,0,0,0,0,0,0,0,0,0,0,0,0,0,0,0,0,0,-1.8103,-1.8103,0,-1.8125,-1.8125,-1.8125,-1.8132,-1.8132,-1.8132,-1.8132,-1.8156,-1.8157,-1.8157,0,0,0,0,0,0,0,0,0,0,0,0,0,-1.8068,-1.8068,-1.8103,-1.8103,-1.8103,-1.8125,-1.8125,-1.8125,-1.8132,-1.8132,-1.8132,-1.8131,-1.8156,-1.8156,-1.8157,0,0,0,0,0,0,0,0,0,0,0,0,0,-1.8086,-1.8069,-1.8102,-1.8109,-1.811,-1.8125,-1.8125,-1.8126,-1.8132,-1.8132,-1.8132,-1.8131,-1.8155,-1.8156,-1.8158,-1.8168,0,0,-1.8161,-1.8161,0,0,0,0,0,0,0,0,-1.8085,-1.8087,-1.8108,-1.8108,-1.8109,-1.8125,-1.8122,-1.814,-1.8132,-1.8124,-1.8132,-1.8131,-1.8146,-1.8148,-1.8152,-1.8169,-1.817,-1.8161,-1.8162,-1.8162,-1.8163,0,0,0,0,0,0,0,-1.8083,-1.8086,-1.8111,-1.8108,-1.8109,-1.8111,-1.8114,-1.8125,-1.8136,-1.8124,-1.8125,-1.8127,-1.8146,-1.8151,-1.8153,-1.8171,-1.8161,-1.8162,-1.8163,-1.8163,-1.8199,-1.8199,0,0,0,0,0,0,-1.8081,-1.8085,-1.8111,-1.8112,-1.8096,-1.8112,-1.8115,-1.812,-1.8135,-1.8137,-1.8127,-1.8127,-1.8149,-1.8152,-1.8154,-1.8168,-1.8162,-1.8163,-1.8164,-1.8199,-1.8199,-1.8199,0,0,0,0,0,0,-1.808,-1.8083,-1.811,-1.8099,-1.8102,-1.8113,-1.8119,-1.8121,-1.8126,-1.8138,-1.814,-1.813,-1.8149,-1.8152,-1.8165,-1.8169,-1.8164,-1.8165,-1.8198,-1.8199,-1.8199,-1.8196,0,0,0,0,0,0,-1.8079,-1.8083,-1.8086,-1.8099,-1.8103,-1.8119,-1.812,-1.8122,-1.8128,-1.8128,-1.8141,-1.8143,-1.815,-1.8163,-1.8166,-1.817,-1.8166,-1.8198,-1.8199,-1.8199,-1.8195,-1.8196,-1.8196,0,0,0,0,0,-1.8078,-1.8084,-1.8086,-1.8089,-1.8107,-1.812,-1.8122,-1.8129,-1.8128,-1.8132,-1.814,-1.8143,-1.8168,-1.8164,-1.8168,-1.8172,-1.8198,-1.8199,-1.8199,-1.8195,-1.8196,-1.8196,0,0,0,0,0,0,-1.8072,-1.8086,-1.8088,-1.8099,-1.8108,-1.8121,-1.8126,-1.8129,-1.8139,-1.8139,-1.8147,-1.815,-1.8162,-1.8169,-1.8164,-1.8184,-1.8183,-1.8185,-1.8179,-1.818,-1.818,-1.8178,-1.8167,0,0,0,0,0,-1.8072,-1.8081,-1.8093,-1.8101,-1.8105,-1.8115,-1.812,-1.8125,-1.8135,-1.8139,-1.8147,-1.8157,-1.8168,-1.8174,-1.8185,-1.8197,-1.82,-1.8202,-1.8203,-1.8203,-1.8204,-1.8212,-1.8213,-1.8201,-1.8201,-1.8201,0,0,-1.8073,-1.8081,-1.8086,-1.81,-1.8108,-1.8117,-1.8118,-1.8127,-1.8134,-1.814,-1.8152,-1.8159,-1.8171,-1.8184,-1.819,-1.819,-1.8208,-1.8204,-1.8204,-1.8204,-1.8212,-1.8213,-1.8214,-1.8202,-1.8202,-1.8202,0,0,-1.8077,-1.8085,-1.8092,-1.81,-1.8111,-1.8118,-1.812,-1.8132,-1.8137,-1.8149,-1.8155,-1.8164,-1.8181,-1.8189,-1.8196,-1.8206,-1.8209,-1.8209,-1.8211,-1.8218,-1.8219,-1.822,-1.8224,-1.8225,-1.821,-1.821,-1.821,0,-1.8076,-1.8089,-1.8096,-1.8105,-1.8112,-1.8118,-1.8127,-1.8134,-1.8148,-1.8153,-1.8153,-1.8176,-1.8184,-1.8199,-1.8201,-1.8207,-1.821,-1.8207,-1.8218,-1.8219,-1.822,-1.8224,-1.8225,-1.821,-1.821,-1.821,-1.821,0,-1.8087,-1.8096,-1.8102,-1.8115,-1.8122,-1.8131,-1.8141,-1.8147,-1.8152,-1.8159,-1.8172,-1.8183,-1.8195,-1.82,-1.8204,-1.8216,-1.8215,-1.8217,-1.8216,-1.8221,-1.8225,-1.8226,-1.821,-1.821,-1.821,-1.821,0,0,-1.8088,-1.8106,-1.8108,-1.8114,-1.8128,-1.8135,-1.8145,-1.8158,-1.8163,-1.8174,-1.8182,-1.8198,-1.82,-1.8207,-1.8213,-1.822,-1.8227,-1.822,-1.8221,-1.8221,-1.8241,-1.824,-1.8241,-1.823,-1.823,-1.823,-1.824,0,-1.8094,-1.8111,-1.8119,-1.8132,-1.8141,-1.8148,-1.8157,-1.8167,-1.8174,-1.8183,-1.8192,-1.8202,-1.8204,-1.8208,-1.8216,-1.8225,-1.8231,-1.8224,-1.8239,-1.8239,-1.8235,-1.8243,-1.8241,-1.825,-1.8242,-1.8242,-1.8242,0,-1.8104,-1.8114,-1.8128,-1.8141,-1.8145,-1.8153,-1.8165,-1.8174,-1.8186,-1.8191,-1.82,-1.8206,-1.8217,-1.8216,-1.8233,-1.8228,-1.8235,-1.8241,-1.8241,-1.8242,-1.824,-1.8244,-1.8253,-1.8254,-1.8244,-1.8244,-1.8244,0,-1.8103,-1.812,-1.8131,-1.8136,-1.8152,-1.8157,-1.8164,-1.8176,-1.8183,-1.8194,-1.8199,-1.8212,-1.8219,-1.8229,-1.8239,-1.8237,-1.8255,-1.8254,-1.826,-1.8259,-1.8262,-1.8262,-1.8272,-1.8268,-1.8267,-1.8267,-1.8267,0,-1.8109,-1.8118,-1.8131,-1.8137,-1.8148,-1.8157,-1.8167,-1.8175,-1.8186,-1.8195,-1.8202,-1.821,-1.8223,-1.8233,-1.8241,-1.8254,-1.8257,-1.8262,-1.8264,-1.8261,-1.826,-1.8265,-1.8264,-1.8268,-1.8268,-1.8268,-1.8268,0,-1.8109,-1.8118,-1.8131,-1.8145,-1.8149,-1.8156,-1.8168,-1.8176,-1.8184,-1.8195,-1.8199,-1.8211,-1.8224,-1.8235,-1.8252,-1.8257,-1.8271,-1.8273,-1.8266,-1.8267,-1.8272,-1.8271,-1.8285,-1.8287,-1.8281,-1.8282,-1.8282,0,-1.8112,-1.8119,-1.8134,-1.814,-1.8147,-1.8157,-1.8164,-1.8174,-1.8182,-1.8197,-1.8202,-1.8216,-1.8227,-1.8247,-1.8259,-1.8272,-1.8275,-1.8279,-1.8277,-1.8274,-1.8275,-1.8274,-1.8275,-1.8279,-1.8279,-1.8279,-1.8279,0,-1.8117,-1.8121,-1.8131,-1.8143,-1.8151,-1.8161,-1.8171,-1.8176,-1.8188,-1.8197,-1.821,-1.8218,-1.8236,-1.8249,-1.8264,-1.8273,-1.8278,-1.8279,-1.8281,-1.8278,-1.8274,-1.8276,-1.8267,-1.8279,-1.8279,-1.8279,-1.8279,-1.8279,-1.8118,-1.8125,-1.8136,-1.8147,-1.8156,-1.8166,-1.8173,-1.8183,-1.8193,-1.8208,-1.8213,-1.8227,-1.824,-1.826,-1.8269,-1.828,-1.8281,-1.8284,-1.8284,-1.8285,-1.8284,-1.8272,-1.8283,-1.8283,-1.8283,-1.8283,-1.8283,0,-1.8123,-1.8131,-1.8141,-1.8155,-1.8164,-1.8168,-1.818,-1.8187,-1.8199,-1.821,-1.8221,-1.8236,-1.825,-1.8263,-1.8277,-1.8284,-1.8287,-1.8287,-1.8286,-1.8288,-1.8283,-1.828,-1.8285,-1.8285,-1.8285,-1.8285,-1.8285,-1.8285,-1.8127,-1.8138,-1.8144,-1.816,-1.8168,-1.8181,-1.8187,-1.8196,-1.8206,-1.8222,-1.8233,-1.8241,-1.8254,-1.8269,-1.8282,-1.8286,-1.8291,-1.829,-1.8295,-1.8289,-1.8289,-1.8288,-1.8285,-1.8291,-1.8291,-1.8299,-1.8299,-1.8299]},{"header":{"parameterUnit":"m.s-1","parameterCategory":1,"la1":30.2991,"la2":30.254,"lo1":-89.0895,"lo2":-89.0444,"dy":0.0017,"dx":0.0017,"nx":28,"ny":28,"refTime":"2024-04-23T21:00:00:Z","depth":0,"parameterNumber":3,"parameterNumberName":"V-component_of_WINDS"},"data":[0,0,0,0,0,0,0,0,0,0,0,0,0,0,0,0,0,0,0,0,0,0,0,0,0,0,0,0,0,0,0,0,0,0,0,0,0,0,0,0,0,0,0,0,0,0,0,0,0,0,0,0,0,0,0,0,0,0,3.8341,3.8341,0,3.8318,3.8318,3.8318,3.8338,3.8339,3.834,3.834,3.8313,3.8311,3.831,0,0,0,0,0,0,0,0,0,0,0,0,0,3.84,3.8399,3.8341,3.8341,3.8341,3.8318,3.8318,3.8317,3.8338,3.8339,3.834,3.8341,3.8313,3.8312,3.831,0,0,0,0,0,0,0,0,0,0,0,0,0,3.8375,3.8398,3.8341,3.8348,3.8349,3.8318,3.8318,3.8317,3.8338,3.8339,3.834,3.8341,3.8314,3.8312,3.831,3.827,0,0,3.8303,3.8302,0,0,0,0,0,0,0,0,3.8377,3.8373,3.8347,3.8348,3.8348,3.8332,3.8329,3.8301,3.8337,3.8342,3.834,3.8342,3.8318,3.8316,3.8308,3.8269,3.8268,3.8302,3.8301,3.83,3.8299,0,0,0,0,0,0,0,3.8378,3.8374,3.8332,3.8347,3.8347,3.8351,3.8349,3.8323,3.8323,3.8341,3.8343,3.834,3.8318,3.831,3.8308,3.8267,3.8302,3.83,3.8299,3.8298,3.8194,3.8193,0,0,0,0,0,0,3.838,3.8376,3.8333,3.8331,3.8366,3.8349,3.8347,3.8336,3.8323,3.8323,3.8339,3.8341,3.8314,3.831,3.8307,3.826,3.83,3.8298,3.8297,3.8196,3.8194,3.8192,0,0,0,0,0,0,3.8381,3.8376,3.8334,3.8354,3.8349,3.8347,3.8334,3.8335,3.8327,3.8322,3.8321,3.8331,3.8315,3.831,3.8279,3.8259,3.8297,3.8295,3.8197,3.8195,3.8193,3.8165,0,0,0,0,0,0,3.8383,3.8376,3.8362,3.8353,3.8348,3.8307,3.8333,3.8333,3.8323,3.8326,3.8314,3.8313,3.8315,3.8283,3.8277,3.8256,3.8293,3.8199,3.8196,3.8194,3.8167,3.8162,3.8157,0,0,0,0,0,3.8385,3.8354,3.8361,3.8355,3.833,3.8306,3.8302,3.8307,3.8322,3.8307,3.8303,3.8314,3.8263,3.8279,3.8273,3.8252,3.82,3.8197,3.8194,3.817,3.8163,3.8157,0,0,0,0,0,0,3.8358,3.8353,3.836,3.8326,3.8316,3.8309,3.829,3.8299,3.8284,3.8287,3.8292,3.8289,3.8256,3.8251,3.827,3.8213,3.8234,3.8229,3.8217,3.8211,3.8206,3.8207,3.8291,0,0,0,0,0,3.8348,3.8331,3.8327,3.8296,3.8291,3.8292,3.8282,3.8286,3.8276,3.8271,3.8266,3.8254,3.8236,3.8223,3.8206,3.8167,3.8165,3.8149,3.8144,3.814,3.8136,3.8115,3.8108,3.8182,3.8182,3.8182,0,0,3.8328,3.8323,3.8311,3.8291,3.8284,3.8265,3.8288,3.8266,3.8252,3.8267,3.8238,3.8234,3.8222,3.8187,3.8171,3.8181,3.8115,3.8136,3.8133,3.8131,3.8111,3.8104,3.8098,3.818,3.818,3.8181,0,0,3.828,3.8275,3.8249,3.8242,3.8232,3.8233,3.8227,3.8218,3.8217,3.8188,3.8199,3.8182,3.815,3.814,3.8132,3.8082,3.809,3.8076,3.8049,3.8028,3.8022,3.8017,3.7999,3.7992,3.8072,3.8072,3.8072,0,3.8255,3.8227,3.8234,3.8212,3.8203,3.8218,3.8192,3.8184,3.8168,3.8161,3.8174,3.8134,3.8127,3.809,3.8078,3.8071,3.8063,3.8077,3.8023,3.8018,3.8013,3.7995,3.7988,3.807,3.807,3.8071,3.8071,0,3.8197,3.8177,3.8158,3.8143,3.8132,3.8108,3.8111,3.8098,3.8104,3.8103,3.8074,3.8066,3.8047,3.8039,3.8044,3.8003,3.801,3.8022,3.8043,3.8004,3.7987,3.7981,3.8068,3.8068,3.8069,3.8069,0,0,3.8129,3.8121,3.8113,3.8107,3.8098,3.8082,3.8059,3.8042,3.8031,3.802,3.8,3.7973,3.7985,3.7975,3.7979,3.7961,3.7922,3.7976,3.7976,3.7965,3.7876,3.7865,3.7858,3.7929,3.7927,3.7926,3.7877,0,3.8081,3.8041,3.8047,3.8008,3.799,3.8005,3.7985,3.7976,3.7975,3.7959,3.7958,3.7938,3.7956,3.795,3.7933,3.793,3.7904,3.7934,3.7908,3.7907,3.791,3.7849,3.7838,3.7791,3.787,3.7869,3.7868,0,3.8018,3.8006,3.7965,3.7959,3.7952,3.7933,3.7919,3.7904,3.7894,3.7895,3.7885,3.7892,3.7868,3.7891,3.7857,3.7877,3.7868,3.7865,3.7863,3.7859,3.7884,3.7843,3.7777,3.7769,3.7858,3.7859,3.786,0,3.7972,3.7946,3.7918,3.7912,3.7905,3.7892,3.7888,3.788,3.787,3.7857,3.785,3.7834,3.7825,3.7812,3.7815,3.7832,3.778,3.7803,3.7779,3.7779,3.7766,3.7767,3.7696,3.7762,3.7762,3.7762,3.7762,0,3.7916,3.789,3.7897,3.788,3.7852,3.786,3.7831,3.7829,3.7822,3.7804,3.7817,3.7799,3.7805,3.7788,3.779,3.7761,3.7757,3.7756,3.7757,3.7754,3.7754,3.7747,3.775,3.776,3.7761,3.7761,3.7761,0,3.7859,3.7863,3.7834,3.783,3.7828,3.7807,3.7803,3.7787,3.7788,3.7765,3.776,3.7761,3.7741,3.7744,3.7721,3.7723,3.7687,3.7692,3.7691,3.7691,3.7666,3.7668,3.7587,3.7577,3.7651,3.765,3.7649,0,3.7822,3.7803,3.7797,3.7787,3.7782,3.7765,3.7755,3.7762,3.7751,3.774,3.7725,3.7707,3.7693,3.7661,3.7659,3.7642,3.7646,3.7619,3.7644,3.7642,3.7645,3.7645,3.7643,3.7614,3.7613,3.7612,3.7612,0,3.7756,3.776,3.7745,3.7732,3.772,3.7709,3.77,3.769,3.7697,3.7683,3.7665,3.7654,3.7632,3.7614,3.7598,3.7594,3.7603,3.7604,3.7598,3.7594,3.7593,3.7593,3.7676,3.7606,3.7606,3.7607,3.7607,3.7607,3.7708,3.7691,3.7685,3.7669,3.7663,3.7654,3.7638,3.7638,3.7623,3.7606,3.7612,3.759,3.7582,3.7562,3.7556,3.7538,3.7548,3.7538,3.7536,3.7533,3.753,3.7598,3.7536,3.7536,3.7536,3.7536,3.7536,0,3.7642,3.7639,3.7624,3.7611,3.7598,3.761,3.7601,3.7589,3.757,3.7562,3.7548,3.7526,3.7509,3.7507,3.749,3.7476,3.748,3.7472,3.7472,3.7471,3.7522,3.7529,3.7469,3.7469,3.7469,3.7469,3.7469,3.7469,3.7606,3.7579,3.7581,3.7551,3.7549,3.7528,3.7522,3.7513,3.7507,3.7483,3.7469,3.7468,3.7462,3.7445,3.743,3.7429,3.7422,3.7411,3.7412,3.746,3.7467,3.7473,3.748,3.741,3.741,3.7362,3.7361,3.7361]}]]